Погода в Раменском

Россия / Московская область     55°34′02″N   38°13′33″E
В апреле 2022 года жителям России запретили посещать сайт meteo.paraplan.net по решению Генеральной прокуратуры. Аудитория сайта уменьшилась в 10 раз. Владельцы сайта не видят смысла в поддержке погодного сервера в таких условиях. Сайт будет закрыт в октябре.
темп.,
°C
ветер,
м/с
пор.,
м/с
влажн.,
%
обл.,
%
осадки,
мм/ч
давл.,
гПа
погр.,
м
29 сентября, чт
чт2900:00+8зюз3583100 0.0 1004305
03:00+8зюз3681100 0.0 1005268
06:00+8зюз1283100 0.0 100648
09:00+9ю2382100 0.0 1007182
12:00+11ю4780100 0.0 1008511
15:00+14юз567290 0.1 1009989
18:00+11з228252 0.0 101122
21:00+9ю338939 0.0 101333
30 сентября, пт
пт3000:00+8ю339156 0.0 101435
03:00+8ююв359273 0.0 101589
06:00+7ююв369295 0.0 1015115
09:00+11ююв4976100 0.0 1015295
12:00+16ю6867100 0.0 1015609
15:00+15ю4878100 0.1 1015695
18:00+13ю3696100 0.9 1015195
21:00+13юз379890 1.6 1016352
1 октября, сб
сб100:00+12юз2597100 0.1 1017175
03:00+12з1197100 0.2 101717
06:00+12в1197100 0.1 101714
09:00+12юв2395100 0.1 1016115
12:00+13ю1294100 0.4 1015139
15:00+12в119790 1.3 101434
18:00+13вюв3498100 0.1 1013108
21:00+12юв4799100 1.2 1011226
2 октября, вс
вс200:00+13ююз4896100 1.4 1010289
03:00+12юз379795 1.5 1009257
06:00+12юз389669 0.0 1009383
09:00+12зюз478698 0.1 1009535
12:00+12з5784100 0.1 1010723
15:00+10зсз4688100 0.1 1011676
18:00+9сз4692100 0.0 1012500
21:00+9с3693100 0.0 1012374
3 октября, пн
пн300:00+9св3594100 0.0 1012265
03:00+10всв4893100 0.0 1010399
06:00+11всв51191100 0.1 1007348
09:00+12в61492100 0.6 1005489
12:00+15в61289100 0.5 1003663
15:00+16вюв71480100 1.6 1001764
18:00+14вюв91785100 1.4 10001079
21:00+15вюв101884100 2.0 9991091